AirNav   Everest Fuels
 
 1577 users online  

NY40 Gentzke Aeronautical Park Airport
Holland, New York, USA

GOING TO HOLLAND?


FAA INFORMATION EFFECTIVE 16 JUNE 2022

Location

FAA Identifier: NY40
Lat/Long: 42-36-38.2200N 078-35-44.0860W
42-36.637000N 078-35.734767W
42.6106167,-78.5955794
(estimated)
Elevation: 1750 ft. / 533 m (estimated)
Variation: 10W (1985)
From city: 4 miles SW of HOLLAND, NY
Time zone: UTC -4 (UTC -5 during Standard Time)
Zip code: 14080

Airport Operations

Airport use: CLOSED INDEFINITELY
Activation date: 11/1988
Control tower: no
ARTCC: CLEVELAND CENTER
FSS: BUFFALO FLIGHT SERVICE STATION
Attendance: UNATNDD
Wind indicator: yes
Segmented circle: no

Nearby radio navigation aids

VOR radial/distance  VOR name  Freq  Var
JHWr050/34.4JAMESTOWN VOR/DME114.7007W

Airport Services

Runway Information

Runway E/W

Dimensions: 2000 x 100 ft. / 610 x 30 m
Surface: turf
RUNWAY E  RUNWAY W
Traffic pattern: leftleft
Obstructions: pline50 ft. trees, 500 ft. from runway

Airport Ownership and Management from official FAA records

Ownership: Privately-owned
Owner: GLENN D. GENTZKE
10661 CRUMP RD
HOLLAND, NY 14080
Phone 716 592-2023
Manager: GLENN D. GENTZKE
10661 CRUMP RD
HOLLAND, NY 14080
Phone 716 592-2023

Airport Operational Statistics

Aircraft based on the field: 3
Single engine airplanes: 3
    

Additional Remarks

FOR CD CTC CLEVELAND ARTCC AT 440-774-0490.
(ARPT STATUS) ARPT CLSD INDEFLY.

Instrument Procedures

There are no published instrument procedures at NY40.

Some nearby airports with instrument procedures:

9G0 - Buffalo Airfield (16 nm N)
KBUF - Buffalo Niagara International Airport (21 nm N)
KOLE - Cattaraugus County-Olean Airport (24 nm SE)
9G3 - Akron Airport/Jesson Field (25 nm N)
KDKK - Chautauqua County/Dunkirk Airport (31 nm W)
 
Loc | Ops | Rwys | IFR | FBO | Links
Com | Nav | Svcs | Stats | Notes
Area around NY40 (Gentzke Aeronautical Park Airport)
 
Road maps at: MapQuest Bing Google
 
Aerial photo
No photo
 
Sectional chart

 
Airport distance calculator
Flying to Gentzke Aeronautical Park Airport? Find the distance to fly.

From to NY40

Sunrise and sunset
Times for 07-Jul-2022
 Local
(UTC-4)
 Zulu
(UTC)
Morning civil twilight05:1109:11
Sunrise05:4509:45
Sunset20:5300:53
Evening civil twilight21:2801:28

Current date and time
Zulu (UTC)  07-Jul-2022 17:09:13
Local (UTC-4)  07-Jul-2022 13:09:13
 
METAR
KBUF 
20nm N 
071654Z 08003KT 10SM SCT046 SCT260 26/14 A3002 RMK AO2 SLP162 T02610144 $
KOLE 
25nm SE 
071655Z AUTO 23003KT 10SM BKN050 22/14 A3007 RMK AO2
KDKK 
31nm W 
071653Z AUTO 35007KT 10SM CLR 24/13 A3004 RMK AO2 SLP169 T02440133 $
KGVQ 
32nm NE 
071656Z AUTO VRB05KT 10SM SCT049 24/13 A3003 RMK AO2 SLP165 T02440128
CWPC 
33nm NW 
071600Z AUTO 17008KT 21/15 RMK AO1 SLP179 T02060152 56005
KIAG 
34nm NW 
071653Z 05004KT 10SM CLR 28/13 A3001 RMK AO2 SLP159 T02780128
KDSV 
39nm E 
071654Z AUTO 00000KT 10SM CLR 27/16 A3001 RMK AO2 SLP168 T02670161
TAF
KBUF 
20nm N 
071511Z 0715/0812 09006KT P6SM SCT040 FM072000 33007KT P6SM SCT040 SCT250 FM080000 VRB03KT P6SM SCT250 FM080300 20005KT P6SM SCT250
NOTAMs
Click for the latest NOTAMs
NOTAMs are issued by the DoD/FAA and will open in a separate window not controlled by AirNav.

 

 
 

Would you like to see your business listed on this page?

 If your business provides an interesting product or service to pilots, flight crews, aircraft, or users of the Gentzke Aeronautical Park Airport, you should consider listing it here.  To start the listing process, click on the button below
 
Add a business
 

Other Pages about Gentzke Aeronautical Park Airport

Update a link
 
Copyright © AirNav, LLC. All rights reserved. Privacy Policy  Contact